Location: White Mills Observatory
(37.5374°N, 86.0303°W)
Time: 15:41:34
(UTC-04:00)

Hubble Space Telescope - Visible Passes

Search period start: 19 April 2018 00:00
Search period end: 29 April 2018 00:00
Orbit: 537 x 541 km, 28.5° (Epoch: 19 April)

Date Brightness Start Highest point End Pass type
(mag) Time Alt. Az. Time Alt. Az. Time Alt. Az.
19 Apr 2.9 05:26:25 13° S 05:26:25 13° S 05:27:26 10° SSE visible
25 Apr 2.9 21:28:14 10° S 21:29:37 11° SSE 21:29:53 11° SSE visible
26 Apr 2.7 21:17:06 10° SSW 21:19:11 14° SSE 21:20:37 12° SE visible
27 Apr 2.6 21:06:15 10° SSW 21:08:45 16° SSE 21:11:13 10° SE visible
27 Apr 3.2 22:46:04 10° SW 22:46:36 13° SW 22:46:36 13° SW visible
28 Apr 2.5 20:55:32 10° SSW 20:58:19 18° SSE 21:01:07 10° SE visible
28 Apr 2.8 22:35:40 10° SW 22:37:04 17° SW 22:37:04 17° SW visible
